Date String (YYYY-MM-DD hh:mm:ss) UTC,Instrument flags,absolute air pressure of the measurement (hPa),sample flow rate (lpm),inlet stack bypass flow (lpm),air temperature of the measurement (°C),ambient temperature measured by the external sensor (°C),aerosol sample conditioner tube jacket temperature (°C),OPC LED temperature (°C),internal box temperature (°C),relative humidity of the measurement (%),span deviation,mass concentration of particles derived from Lorenz-Mie calculation of OPC scattering (μg/m³),mass concentration of particles derived from Lorenz-Mie calculation of OPC scattering (μg/m³),mass concentration of particles derived from Lorenz-Mie calculation of OPC scattering (μg/m³)
DateTimeUTC,F1_M11,P_M11,Q1_M11,Q2_M11,T1_M11,T2_M11,T3_M11,T4_M11,T5_M11,U1_M11,ZSPAN_M11,X2_M11,X0_M11,X1_M11
2023-06-19 00:00:00,SystemResetWarning,0823.3,4.99,000.00,029.5,027.8,000.0,037.9,031.1,22.8,0000.0,0004.43,0008.38,0004.00
2023-06-19 00:01:00,SystemResetWarning,0823.3,5.00,000.00,029.5,026.2,000.0,037.8,031.0,22.5,0000.0,0004.43,0008.36,0004.00
2023-06-19 00:02:00,SystemResetWarning,0823.3,5.00,000.00,029.4,024.4,000.0,037.8,030.9,23.0,0000.0,0004.41,0008.37,0004.00
2023-06-19 00:03:00,SystemResetWarning,0823.3,5.01,000.00,029.4,024.3,000.0,037.7,030.9,23.4,0000.0,0004.38,0008.30,0004.01
2023-06-19 00:04:00,SystemResetWarning,0823.3,5.01,000.00,029.3,024.7,000.0,037.7,030.6,24.0,0000.0,0004.39,0008.27,0004.01
2023-06-19 00:05:00,SystemResetWarning,0823.3,4.99,000.00,029.2,025.2,000.0,037.7,030.5,24.3,0000.0,0004.41,0008.08,0004.02
2023-06-19 00:06:00,SystemResetWarning,0823.3,4.99,000.00,029.2,025.7,000.0,037.7,030.6,25.3,0000.0,0004.42,0008.32,0004.02
2023-06-19 00:07:00,SystemResetWarning,0823.3,5.00,000.00,029.2,026.2,000.0,037.7,030.7,25.3,0000.0,0004.42,0008.51,0004.03
2023-06-19 00:08:00,SystemResetWarning,0823.3,5.00,000.00,029.2,026.7,000.0,037.7,030.7,24.9,0000.0,0004.41,0009.00,0004.01
2023-06-19 00:09:00,SystemResetWarning,0823.3,5.01,000.00,029.2,027.0,000.0,037.7,030.8,24.4,0000.0,0004.41,0009.41,0004.02
2023-06-19 00:10:00,SystemResetWarning,0823.3,5.00,000.00,029.3,027.3,000.0,037.8,030.9,23.8,0000.0,0004.47,0009.44,0004.04
2023-06-19 00:11:00,SystemResetWarning,0823.3,5.00,000.00,029.3,027.6,000.0,037.8,031.0,23.5,0000.0,0004.47,0009.41,0004.06
2023-06-19 00:12:00,SystemResetWarning,0823.3,4.99,000.00,029.3,027.8,000.0,037.8,031.0,23.3,0000.0,0004.51,0009.61,0004.07
2023-06-19 00:13:00,SystemResetWarning,0823.3,5.00,000.00,029.4,028.0,000.0,037.8,031.1,23.6,0000.0,0004.52,0009.79,0004.07
2023-06-19 00:14:00,SystemResetWarning,0823.3,5.00,000.00,029.4,027.1,000.0,037.8,031.1,24.1,0000.0,0004.51,0010.18,0004.06
2023-06-19 00:15:00,SystemResetWarning,0823.3,5.00,000.00,029.4,025.4,000.0,037.7,031.0,23.6,0000.0,0004.50,0009.59,0004.06
2023-06-19 00:16:00,SystemResetWarning,0823.3,5.00,000.00,029.4,025.3,000.0,037.7,031.0,23.3,0000.0,0004.48,0009.63,0004.06
2023-06-19 00:17:00,SystemResetWarning,0823.3,5.01,000.00,029.3,025.6,000.0,037.7,030.7,23.5,0000.0,0004.48,0009.33,0004.08
2023-06-19 00:18:00,SystemResetWarning,0823.3,5.01,000.00,029.3,026.0,000.0,037.8,030.7,23.2,0000.0,0004.50,0009.18,0004.08
2023-06-19 00:19:00,SystemResetWarning,0823.3,5.00,000.00,029.3,026.5,000.0,037.8,030.8,23.2,0000.0,0004.52,0009.00,0004.09
2023-06-19 00:20:00,SystemResetWarning,0823.4,5.00,000.00,029.3,026.9,000.0,037.8,030.9,23.1,0000.0,0004.53,0008.43,0004.09
2023-06-19 00:21:00,SystemResetWarning,0823.4,5.00,000.00,029.3,027.2,000.0,037.8,030.9,22.9,0000.0,0004.48,0008.34,0004.07
2023-06-19 00:22:00,SystemResetWarning,0823.4,5.00,000.00,029.4,027.5,000.0,037.8,031.0,23.2,0000.0,0004.44,0008.41,0004.06
2023-06-19 00:23:00,SystemResetWarning,0823.4,4.99,000.00,029.4,027.7,000.0,037.8,031.1,22.8,0000.0,0004.44,0008.43,0004.05
2023-06-19 00:24:00,SystemResetWarning,0823.4,4.99,000.00,029.4,027.1,000.0,037.8,031.1,22.8,0000.0,0004.41,0008.31,0004.05
2023-06-19 00:25:00,SystemResetWarning,0823.4,5.00,000.00,029.4,025.3,000.0,037.8,031.1,23.1,0000.0,0004.44,0008.26,0004.06
2023-06-19 00:26:00,SystemResetWarning,0823.4,5.01,000.00,029.4,025.2,000.0,037.7,031.0,22.7,0000.0,0004.43,0008.63,0004.06
2023-06-19 00:27:00,SystemResetWarning,0823.3,5.01,000.00,029.3,025.5,000.0,037.8,030.8,22.5,0000.0,0004.43,0008.58,0004.06
2023-06-19 00:28:00,SystemResetWarning,0823.4,5.01,000.00,029.3,025.9,000.0,037.8,030.8,22.4,0000.0,0004.42,0008.95,0004.06
2023-06-19 00:29:00,SystemResetWarning,0823.4,4.99,000.00,029.3,026.4,000.0,037.8,030.8,22.1,0000.0,0004.38,0009.12,0004.05
2023-06-19 00:30:00,SystemResetWarning,0823.4,5.00,000.00,029.3,026.8,000.0,037.8,030.9,22.1,0000.0,0004.40,0009.31,0004.05
2023-06-19 00:31:00,SystemResetWarning,0823.4,4.99,000.00,029.3,027.1,000.0,037.8,031.0,23.5,0000.0,0004.39,0009.85,0004.05
2023-06-19 00:32:00,SystemResetWarning,0823.4,4.99,000.00,029.4,027.4,000.0,037.8,031.0,24.0,0000.0,0004.39,0009.85,0004.05
2023-06-19 00:33:00,SystemResetWarning,0823.4,5.02,000.00,029.4,027.7,000.0,037.8,031.1,23.7,0000.0,0004.41,0009.96,0004.06
2023-06-19 00:34:00,SystemResetWarning,0823.4,5.00,000.00,029.5,027.9,000.0,037.9,031.1,22.7,0000.0,0004.42,0009.86,0004.07
2023-06-19 00:35:00,SystemResetWarning,0823.4,4.98,000.00,029.5,027.6,000.0,037.9,031.2,22.3,0000.0,0004.43,0009.90,0004.07
2023-06-19 00:36:00,SystemResetWarning,0823.4,5.01,000.00,029.5,025.8,000.0,037.8,031.1,23.1,0000.0,0004.45,0009.57,0004.07
2023-06-19 00:37:00,SystemResetWarning,0823.4,5.00,000.00,029.5,025.3,000.0,037.8,031.0,23.6,0000.0,0004.49,0009.34,0004.08
2023-06-19 00:38:00,SystemResetWarning,0823.5,5.01,000.00,029.4,025.5,000.0,037.8,030.8,24.1,0000.0,0004.48,0009.35,0004.08
2023-06-19 00:39:00,SystemResetWarning,0823.4,5.00,000.00,029.3,025.9,000.0,037.8,030.8,24.0,0000.0,0004.52,0009.40,0004.09
2023-06-19 00:40:00,SystemResetWarning,0823.4,5.00,000.00,029.3,026.3,000.0,037.8,030.8,24.8,0000.0,0004.53,0009.16,0004.10
2023-06-19 00:41:00,SystemResetWarning,0823.4,5.00,000.00,029.3,026.7,000.0,037.8,030.9,25.1,0000.0,0004.51,0008.94,0004.10
2023-06-19 00:42:00,SystemResetWarning,0823.5,5.00,000.00,029.4,027.1,000.0,037.8,031.0,24.8,0000.0,0004.50,0008.64,0004.10
2023-06-19 00:43:00,SystemResetWarning,0823.5,4.98,000.00,029.4,027.4,000.0,037.9,031.0,25.9,0000.0,0004.51,0009.86,0004.11
2023-06-19 00:44:00,SystemResetWarning,0823.5,5.00,000.00,029.4,027.7,000.0,037.9,031.1,24.5,0000.0,0004.48,0009.79,0004.10
2023-06-19 00:45:00,SystemResetWarning,0823.5,5.00,000.00,029.5,027.6,000.0,037.9,031.1,22.1,0000.0,0004.48,0009.68,0004.11
2023-06-19 00:46:00,SystemResetWarning,0823.4,5.00,000.00,029.5,025.9,000.0,037.8,031.1,21.7,0000.0,0004.49,0009.76,0004.11
2023-06-19 00:47:00,SystemResetWarning,0823.4,5.00,000.00,029.5,025.1,000.0,037.8,031.1,22.1,0000.0,0004.49,0009.81,0004.12
2023-06-19 00:48:00,SystemResetWarning,0823.4,5.01,000.00,029.4,025.4,000.0,037.8,030.9,22.4,0000.0,0004.48,0009.69,0004.14
2023-06-19 00:49:00,SystemResetWarning,0823.4,5.01,000.00,029.3,025.8,000.0,037.8,030.7,22.4,0000.0,0004.49,0009.89,0004.15
2023-06-19 00:50:00,SystemResetWarning,0823.4,5.00,000.00,029.3,026.2,000.0,037.8,030.8,22.2,0000.0,0004.53,0010.85,0004.17
2023-06-19 00:51:00,SystemResetWarning,0823.4,5.00,000.00,029.3,026.6,000.0,037.8,030.8,21.5,0000.0,0004.51,0010.86,0004.17
2023-06-19 00:52:00,SystemResetWarning,0823.4,5.00,000.00,029.3,027.0,000.0,037.8,030.9,22.0,0000.0,0004.50,0010.94,0004.17
2023-06-19 00:53:00,SystemResetWarning,0823.5,5.00,000.00,029.4,027.3,000.0,037.9,031.0,22.1,0000.0,0004.54,0011.34,0004.19
2023-06-19 00:54:00,SystemResetWarning,0823.5,4.99,000.00,029.4,027.6,000.0,037.9,031.0,21.9,0000.0,0004.56,0010.17,0004.19
2023-06-19 00:55:00,SystemResetWarning,0823.5,5.00,000.00,029.5,027.8,000.0,037.9,031.1,22.0,0000.0,0004.58,0010.04,0004.20
2023-06-19 00:56:00,SystemResetWarning,0823.5,5.00,000.00,029.5,027.2,000.0,037.9,031.2,22.2,0000.0,0004.59,0010.51,0004.21
2023-06-19 00:57:00,SystemResetWarning,0823.5,5.00,000.00,029.5,025.0,000.0,037.8,031.0,22.5,0000.0,0004.58,0010.77,0004.21
2023-06-19 00:58:00,SystemResetWarning,0823.5,5.01,000.00,029.4,024.0,000.0,037.8,030.9,22.7,0000.0,0004.59,0010.72,0004.22
2023-06-19 00:59:00,SystemResetWarning,0823.5,5.02,000.00,029.4,024.3,000.0,037.7,030.7,23.1,0000.0,0004.59,0010.75,0004.21
